Flag for Canada Weather past 2 weeks in Nanaimo, British Columbia, Canada

Now
49 °F

Cool.


Feels Like: 44 °F
Forecast: 47 / 60 °F
Wind: 12 mph from Southeast

Location: Entrance Island

Current Time: Mar 27, 2015 at 9:22:16 AM

Latest Report: Mar 27, 2015 at 9:00 AM


Visibility: N/A

Pressure: 29.99 "Hg

Humidity: 94%

Dew point: 47 °F

Location of NanaimoLocation

Historic Weather in Nanaimo — Graph

°F

Nanaimo temperature yesterday

Maximum temperature yesterday: 53 °F (at 3:00 PM)
Minimum temperature yesterday: 49 °F (at 12:00 AM)
Average temperature yesterday: 51 °F

Past Weeks' High & Low Weather Summary

 TemperatureHumidityPressure
High58 °F (Mar 14, 2:00 PM)98% (Mar 18, 6:00 AM)30.36 "Hg (Mar 18, 6:00 AM)
Low42 °F (Mar 17, 8:00 AM)41% (Mar 14, 2:00 PM)29.62 "Hg (Mar 14, 8:00 AM)
Average48 °F83%30.08 "Hg
* Reported Mar 12 8:00 AM — Mar 27 8:00 AM, Nanaimo, Weather by CustomWeather, © 2015

Note: Actual official high and low records may vary slightly from our data, if they occured in-between our weather recording intervals... More about our weather records

Advertising

Nanaimo weather history for previous 24 hours

 ConditionsComfort  
Time TempWeatherWind HumidityBarometerVisibility
8:00 AM
Fri, Mar 27
48 °FCool.12 mph94%29.99 "HgN/A
7:00 AM49 °FCool.7 mph93%30.00 "HgN/A
6:00 AM49 °FCool.10 mph93%30.01 "HgN/A
5:00 AM49 °FCool.7 mph93%30.03 "HgN/A
4:00 AM49 °FCool.10 mph92%30.05 "HgN/A
3:00 AM50 °FCool.8 mph91%30.08 "HgN/A
2:00 AM51 °FCool.12 mph91%30.09 "HgN/A
1:00 AM50 °FCool.7 mph91%30.12 "HgN/A
12:00 AM51 °FCool.7 mph91%30.12 "HgN/A
11:00 PM
Thu, Mar 26
52 °FCool.6 mph90%30.14 "HgN/A
10:00 PM51 °FCool.6 mph89%30.14 "HgN/A
9:00 PM53 °FCool.5 mph87%30.14 "HgN/A
8:00 PM53 °FCool.5 mph87%30.14 "HgN/A
7:00 PM51 °FCool.12 mph88%30.14 "HgN/A
6:00 PM52 °FCool.8 mph84%30.16 "HgN/A
5:00 PM53 °FCool.9 mph85%30.17 "HgN/A
4:00 PM53 °FCool.14 mph85%30.18 "HgN/A
3:00 PM53 °FCool.13 mph85%30.21 "HgN/A
2:00 PM53 °FCool.13 mph86%30.22 "HgN/A
1:00 PM52 °FCool.12 mph87%30.24 "HgN/A
12:00 PM51 °FCool.16 mph90%30.24 "HgN/A
11:00 AM51 °FCool.9 mph91%30.25 "HgN/A
10:00 AM50 °FCool.20 mph86%30.24 "HgN/A
9:00 AM49 °FCool.13 mph86%30.24 "HgN/A
Weather by CustomWeather, © 2015

See weather overviewHow to use our weather pages